2023/10/18 00:00:00, 0.2,12.1
2023/10/18 00:10:00, 0.2,12.1
2023/10/18 00:20:00, 0.2,11.7
2023/10/18 00:30:00, 0.2,11.8
2023/10/18 00:40:00, 0.2,11.9
2023/10/18 00:50:00, 0.2,11.7
2023/10/18 01:00:00, 0.2,11.6
2023/10/18 01:10:00, 0.3,11.4
2023/10/18 01:20:00, 0.2,11.8
2023/10/18 01:30:00, 0.3,11.6
2023/10/18 01:40:00, 0.2,11.3
2023/10/18 01:50:00, 0.2,11.2
2023/10/18 02:00:00, 0.2,10.9
2023/10/18 02:10:00, 0.2,11.0
2023/10/18 02:20:00, 0.2,10.8
2023/10/18 02:30:00, 0.2,10.9
2023/10/18 02:40:00, 0.2,10.9
2023/10/18 02:50:00, 0.2,10.8
2023/10/18 03:00:00, 0.2,10.9
2023/10/18 03:10:00, 0.3,10.7
2023/10/18 03:20:00, 0.3,10.8
2023/10/18 03:30:00, 0.3,10.9
2023/10/18 03:40:00, 0.3,10.8
2023/10/18 03:50:00, 0.2,10.6
2023/10/18 04:00:00, 0.2,10.7
2023/10/18 04:10:00, 0.2,10.2
2023/10/18 04:20:00, 0.2,10.4
2023/10/18 04:30:00, 0.2,10.5
2023/10/18 04:40:00, 0.2,10.2
2023/10/18 04:50:00, 0.2,10.2
2023/10/18 05:00:00, 0.2,10.2
2023/10/18 05:10:00, 0.2, 9.9
2023/10/18 05:20:00, 0.2, 9.8
2023/10/18 05:30:00, 0.3,10.0
2023/10/18 05:40:00, 0.3, 9.9
2023/10/18 05:50:00, 0.2, 9.9
2023/10/18 06:00:00, 0.2, 9.6
2023/10/18 06:10:00, 0.2, 9.6
2023/10/18 06:20:00, 0.2, 9.6
2023/10/18 06:30:00, 0.2, 9.7
2023/10/18 06:40:00, 0.2, 9.8
2023/10/18 06:50:00, 0.2, 9.8
2023/10/18 07:00:00, 0.2, 9.9
2023/10/18 07:10:00, 0.2,10.1
2023/10/18 07:20:00, 0.3,10.4
2023/10/18 07:30:00, 0.2,10.3
2023/10/18 07:40:00, 0.2,10.7
2023/10/18 07:50:00, 0.3,10.8
2023/10/18 08:00:00, 0.2,11.0
2023/10/18 08:10:00, 0.3,11.9
2023/10/18 08:20:00, 0.3,11.8
2023/10/18 08:30:00, 0.2,12.0
2023/10/18 08:40:00, 0.2,12.6
2023/10/18 08:50:00, 0.2,13.1
2023/10/18 09:00:00, 0.2,14.0
2023/10/18 09:10:00, 0.2,14.8
2023/10/18 09:20:00, 0.3,15.6
2023/10/18 09:30:00, 0.3,16.8
2023/10/18 09:40:00, 0.3,17.6
2023/10/18 09:50:00, 0.3,18.1
2023/10/18 10:00:00, 0.3,19.1
2023/10/18 10:10:00, 0.3,20.0
2023/10/18 10:20:00, 0.3,20.8
2023/10/18 10:30:00, 0.3,21.2
2023/10/18 10:40:00, 0.3,20.9
2023/10/18 10:50:00, 0.2,20.6
2023/10/18 11:00:00, 0.3,21.1
2023/10/18 11:10:00, 0.4,22.1
2023/10/18 11:20:00, 0.4,22.2
2023/10/18 11:30:00, 0.3,22.2
2023/10/18 11:40:00, 0.3,22.3
2023/10/18 11:50:00, 0.2,21.4
2023/10/18 12:00:00, 0.2,22.3
2023/10/18 12:10:00, 0.2,21.9
2023/10/18 12:20:00, 0.2,21.9
2023/10/18 12:30:00, 0.3,22.3
2023/10/18 12:40:00, 0.3,23.3
2023/10/18 12:50:00, 0.3,23.2
2023/10/18 13:00:00, 0.2,25.2
2023/10/18 13:10:00, 0.2,23.5
2023/10/18 13:20:00, 0.2,24.2
2023/10/18 13:30:00, 0.1,23.9
2023/10/18 13:40:00, 0.1,23.3
2023/10/18 13:50:00, 0.1,24.3
2023/10/18 14:00:00, 0.1,24.5
2023/10/18 14:10:00, 0.1,25.4
2023/10/18 14:20:00, 0.2,28.2
2023/10/18 14:30:00, 0.1,24.8
2023/10/18 14:40:00, 0.1,23.5
2023/10/18 14:50:00, 0.1,26.7
2023/10/18 15:00:00, 0.2,26.5
2023/10/18 15:10:00, 0.2,28.2
2023/10/18 15:20:00, 0.1,29.0
2023/10/18 15:30:00, 0.1,27.6
2023/10/18 15:40:00, 0.1,29.0
2023/10/18 15:50:00, 0.1,26.4
2023/10/18 16:00:00, 0.0,22.1
2023/10/18 16:10:00, 0.1,20.9
2023/10/18 16:20:00, 0.1,20.3
2023/10/18 16:30:00, 0.1,19.2
2023/10/18 16:40:00, 0.1,18.3
2023/10/18 16:50:00, 0.1,18.5
2023/10/18 17:00:00, 0.1,17.6
2023/10/18 17:10:00, 0.1,17.3
2023/10/18 17:20:00, 0.1,16.8
2023/10/18 17:30:00, 0.1,16.3
2023/10/18 17:40:00, 0.1,15.7
2023/10/18 17:50:00, 0.1,15.4
2023/10/18 18:00:00, 0.1,15.2
2023/10/18 18:10:00, 0.1,14.8
2023/10/18 18:20:00, 0.2,14.7
2023/10/18 18:30:00, 0.2,14.2
2023/10/18 18:40:00, 0.2,14.0
2023/10/18 18:50:00, 0.2,13.7
2023/10/18 19:00:00, 0.2,13.5
2023/10/18 19:10:00, 0.2,13.4
2023/10/18 19:20:00, 0.2,13.2
2023/10/18 19:30:00, 0.1,12.8
2023/10/18 19:40:00, 0.1,12.8
2023/10/18 19:50:00, 0.1,12.8
2023/10/18 20:00:00, 0.1,12.4
2023/10/18 20:10:00, 0.2,12.0
2023/10/18 20:20:00, 0.1,12.0
2023/10/18 20:30:00, 0.2,11.8
2023/10/18 20:40:00, 0.2,11.6
2023/10/18 20:50:00, 0.2,11.5
2023/10/18 21:00:00, 0.2,11.3
2023/10/18 21:10:00, 0.2,11.2
2023/10/18 21:20:00, 0.2,10.9
2023/10/18 21:30:00, 0.2,10.9
2023/10/18 21:40:00, 0.2,10.8
2023/10/18 21:50:00, 0.2,10.7
2023/10/18 22:00:00, 0.2,10.6
2023/10/18 22:10:00, 0.2,10.4
2023/10/18 22:20:00, 0.3,10.3
2023/10/18 22:30:00, 0.3,10.6
2023/10/18 22:40:00, 0.2,11.0
2023/10/18 22:50:00, 0.3,11.1
2023/10/18 23:00:00, 0.3,10.9
2023/10/18 23:10:00, 0.3,10.9
2023/10/18 23:20:00, 0.3,10.9
2023/10/18 23:30:00, 0.3,11.2
2023/10/18 23:40:00, 0.3,11.0
2023/10/18 23:50:00, 0.3,10.9
